UAL128 PHNL-KIAH

Flight info

Callsign UAL128
Flight time 6h 54m
Altitude 37000
Route MKK5 CODDY FITES R578 FOMAS 25N140W/N0471F390 26N135W 26N130W 26N120W IMUSU DUTES DLF SAT HTOWN3
Aircraft B772/H-SDE2E3FGHIJ5LORVWXY/LB1D1

Departure

Time 2026-05-05 13:11
Airport Daniel K. Inouye International Airport (PHNL)

Arrival

Time 2026-05-05 20:06
Airport George Bush Intercontinental Airport (KIAH)
Time Latitude Longitude Altitude Speed Heading
2026-05-05 12:55 21.32882 -157.92386 28 ft 0 kts
2026-05-05 13:03 21.32880 -157.92386 28 ft 2 kts
2026-05-05 13:03 21.32854 -157.92386 28 ft 4 kts 360°
2026-05-05 13:03 21.32826 -157.92386 28 ft 3 kts 359°
2026-05-05 13:04 21.32806 -157.92385 28 ft 4 kts 348°
2026-05-05 13:04 21.32784 -157.92376 28 ft 4 kts 314°
2026-05-05 13:04 21.32773 -157.92357 28 ft 4 kts 272°
2026-05-05 13:04 21.32773 -157.92330 29 ft 4 kts 270°
2026-05-05 13:05 21.32773 -157.92321 29 ft 0 kts 270°
2026-05-05 13:06 21.32774 -157.92408 29 ft 20 kts 270°
2026-05-05 13:07 21.32774 -157.92557 29 ft 20 kts 270°
2026-05-05 13:07 21.32771 -157.92704 29 ft 20 kts 260°
2026-05-05 13:07 21.32746 -157.92850 29 ft 20 kts 266°
2026-05-05 13:07 21.32744 -157.92997 29 ft 20 kts 270°
2026-05-05 13:08 21.32743 -157.93145 29 ft 20 kts 270°
2026-05-05 13:08 21.32743 -157.93294 29 ft 20 kts 270°
2026-05-05 13:08 21.32743 -157.93440 29 ft 20 kts 270°
2026-05-05 13:08 21.32742 -157.93588 29 ft 20 kts 269°
2026-05-05 13:09 21.32741 -157.93737 29 ft 20 kts 269°
2026-05-05 13:09 21.32740 -157.93885 29 ft 20 kts 269°
2026-05-05 13:09 21.32739 -157.94031 29 ft 20 kts 269°
2026-05-05 13:09 21.32741 -157.94179 29 ft 20 kts 271°
2026-05-05 13:10 21.32700 -157.94308 29 ft 20 kts 201°
2026-05-05 13:10 21.32568 -157.94307 29 ft 17 kts 149°
2026-05-05 13:10 21.32527 -157.94205 29 ft 0 kts 90°
2026-05-05 13:11 21.32526 -157.93981 29 ft 75 kts 90°
2026-05-05 13:11 21.32532 -157.93077 31 ft 164 kts 89°
2026-05-05 13:11 21.32503 -157.91685 584 ft 194 kts 96°
2026-05-05 13:11 21.32023 -157.90325 1723 ft 196 kts 122°
2026-05-05 13:12 21.31284 -157.89122 3008 ft 194 kts 120°
2026-05-05 13:12 21.30532 -157.87848 3426 ft 211 kts 119°
2026-05-05 13:12 21.29693 -157.86454 3688 ft 234 kts 120°
2026-05-05 13:12 21.28792 -157.84909 4080 ft 250 kts 117°
2026-05-05 13:13 21.28188 -157.83165 4687 ft 256 kts 104°
2026-05-05 13:13 21.27796 -157.81272 5420 ft 263 kts 102°
2026-05-05 13:13 21.27428 -157.79321 6178 ft 269 kts 103°
2026-05-05 13:13 21.27046 -157.77334 6935 ft 274 kts 103°
2026-05-05 13:14 21.26647 -157.75319 7723 ft 277 kts 103°
2026-05-05 13:14 21.26235 -157.73307 8454 ft 282 kts 104°
2026-05-05 13:14 21.25803 -157.71242 9171 ft 286 kts 104°
2026-05-05 13:14 21.25356 -157.69145 9887 ft 290 kts 104°
2026-05-05 13:15 21.24894 -157.66996 10395 ft 304 kts 104°
2026-05-05 13:15 21.24394 -157.64695 10553 ft 328 kts 104°
2026-05-05 13:15 21.23862 -157.62254 10746 ft 352 kts 104°
2026-05-05 13:15 21.23290 -157.59639 11249 ft 365 kts 104°
2026-05-05 13:16 21.22700 -157.56944 11914 ft 374 kts 104°
2026-05-05 13:16 21.22099 -157.54206 12647 ft 380 kts 104°
2026-05-05 13:16 21.21488 -157.51426 13410 ft 385 kts 104°
2026-05-05 13:16 21.20877 -157.48650 14174 ft 389 kts 104°
2026-05-05 13:17 21.20249 -157.45799 14922 ft 394 kts 104°
2026-05-05 13:17 21.19615 -157.42925 15641 ft 398 kts 104°
2026-05-05 13:17 21.18979 -157.40050 16304 ft 404 kts 104°
2026-05-05 13:17 21.18326 -157.37099 16977 ft 408 kts 104°
2026-05-05 13:18 21.17666 -157.34114 17627 ft 412 kts 104°
2026-05-05 13:18 21.16999 -157.31104 18245 ft 417 kts 104°
2026-05-05 13:18 21.16325 -157.28062 18844 ft 422 kts 104°
2026-05-05 13:18 21.15650 -157.25017 19419 ft 426 kts 104°
2026-05-05 13:19 21.14958 -157.21902 19993 ft 430 kts 104°
2026-05-05 13:19 21.14457 -157.18726 20417 ft 436 kts 93°
2026-05-05 13:19 21.14623 -157.15496 20877 ft 442 kts 80°
2026-05-05 13:19 21.15419 -157.12311 21426 ft 442 kts 68°
2026-05-05 13:20 21.16627 -157.09257 21880 ft 447 kts 65°
2026-05-05 13:20 21.17899 -157.06186 22342 ft 452 kts 65°
2026-05-05 13:20 21.19185 -157.03084 22858 ft 456 kts 65°
2026-05-05 13:20 21.20466 -156.99953 23383 ft 459 kts 66°
2026-05-05 13:21 21.21723 -156.96833 23870 ft 463 kts 66°
2026-05-05 13:21 21.23001 -156.93629 24331 ft 467 kts 66°
2026-05-05 13:21 21.24278 -156.90407 24792 ft 471 kts 66°
2026-05-05 13:21 21.25552 -156.87184 25256 ft 475 kts 66°
2026-05-05 13:22 21.26849 -156.83901 25719 ft 478 kts 66°
2026-05-05 13:22 21.28152 -156.80603 26175 ft 480 kts 66°
2026-05-05 13:22 21.29465 -156.77280 26598 ft 484 kts 66°
2026-05-05 13:22 21.30768 -156.73982 26987 ft 487 kts 66°
2026-05-05 13:23 21.32035 -156.70594 27364 ft 490 kts 70°
2026-05-05 13:23 21.32985 -156.67063 27725 ft 494 kts 76°
2026-05-05 13:23 21.33644 -156.63423 28105 ft 497 kts 82°
2026-05-05 13:23 21.33967 -156.59765 28471 ft 498 kts 86°
2026-05-05 13:24 21.34186 -156.56041 28811 ft 501 kts 86°
2026-05-05 13:24 21.34386 -156.52290 29120 ft 504 kts 86°
2026-05-05 13:24 21.34588 -156.48533 29433 ft 507 kts 86°
2026-05-05 13:24 21.34798 -156.44775 29729 ft 509 kts 86°
2026-05-05 13:25 21.35019 -156.40972 30028 ft 512 kts 86°
2026-05-05 13:25 21.35250 -156.37141 30310 ft 514 kts 86°
2026-05-05 13:25 21.35486 -156.33298 30597 ft 515 kts 86°
2026-05-05 13:25 21.35725 -156.29442 30862 ft 517 kts 86°
2026-05-05 13:26 21.35959 -156.25630 31109 ft 519 kts 86°
2026-05-05 13:26 21.36198 -156.21732 31334 ft 521 kts 86°
2026-05-05 13:26 21.36435 -156.17837 31534 ft 524 kts 86°
2026-05-05 13:26 21.36668 -156.13967 31736 ft 525 kts 86°
2026-05-05 13:27 21.36904 -156.10039 31948 ft 527 kts 86°
2026-05-05 13:27 21.37139 -156.06105 32212 ft 526 kts 86°
2026-05-05 13:27 21.37370 -156.02230 32494 ft 526 kts 86°
2026-05-05 13:27 21.37603 -155.98323 32767 ft 525 kts 86°
2026-05-05 13:28 21.37835 -155.94395 33055 ft 524 kts 86°
2026-05-05 13:28 21.38066 -155.90482 33281 ft 525 kts 86°
2026-05-05 13:28 21.38296 -155.86570 33525 ft 525 kts 86°
2026-05-05 13:28 21.38522 -155.82702 33803 ft 524 kts 86°
2026-05-05 13:29 21.38748 -155.78805 34065 ft 523 kts 86°
2026-05-05 13:29 21.38975 -155.74900 34317 ft 523 kts 86°
2026-05-05 13:29 21.39201 -155.70984 34557 ft 523 kts 86°
2026-05-05 13:29 21.39423 -155.67122 34749 ft 524 kts 86°
2026-05-05 13:30 21.39647 -155.63208 34932 ft 526 kts 86°
2026-05-05 13:30 21.39872 -155.59278 35160 ft 526 kts 86°
2026-05-05 13:30 21.40094 -155.55362 35406 ft 525 kts 87°
2026-05-05 13:30 21.40316 -155.51448 35638 ft 525 kts 87°
2026-05-05 13:31 21.40536 -155.47543 35837 ft 525 kts 87°
2026-05-05 13:31 21.40757 -155.43607 36007 ft 526 kts 87°
2026-05-05 13:31 21.40974 -155.39721 36199 ft 526 kts 87°
2026-05-05 13:31 21.41193 -155.35788 36383 ft 526 kts 87°
2026-05-05 13:32 21.41411 -155.31851 36539 ft 528 kts 87°
2026-05-05 13:32 21.41626 -155.27951 36689 ft 528 kts 87°
2026-05-05 13:32 21.41844 -155.24011 36938 ft 527 kts 87°
2026-05-05 13:32 21.42052 -155.20072 37015 ft 525 kts 89°
2026-05-05 13:33 21.41607 -155.12350 37046 ft 517 kts 101°
2026-05-05 13:33 21.39952 -155.04870 37060 ft 513 kts 110°
2026-05-05 13:34 21.37802 -154.97588 37061 ft 514 kts 110°
2026-05-05 13:34 21.35642 -154.90299 37060 ft 515 kts 110°
2026-05-05 13:35 21.33499 -154.82946 37056 ft 516 kts 110°
2026-05-05 13:35 21.31369 -154.75574 37064 ft 516 kts 110°
2026-05-05 13:36 21.29248 -154.68234 37066 ft 516 kts 110°
2026-05-05 13:36 21.27121 -154.60900 37064 ft 517 kts 110°
2026-05-05 13:37 21.25338 -154.54769 37063 ft 517 kts 110°
2026-05-05 13:37 21.23184 -154.47379 37065 ft 518 kts 110°
2026-05-05 13:38 21.21039 -154.40025 37065 ft 518 kts 110°
2026-05-05 13:38 21.18878 -154.32628 37064 ft 519 kts 110°
2026-05-05 13:39 21.16725 -154.25272 37063 ft 519 kts 110°
2026-05-05 13:39 21.14569 -154.17919 37074 ft 519 kts 110°
2026-05-05 13:40 21.12398 -154.10532 37073 ft 519 kts 110°
2026-05-05 13:40 21.10219 -154.03127 37075 ft 519 kts 110°
2026-05-05 13:41 21.08048 -153.95764 37071 ft 520 kts 110°
2026-05-05 13:41 21.05861 -153.88361 37075 ft 520 kts 110°
2026-05-05 13:42 21.03683 -153.81000 37074 ft 521 kts 110°
2026-05-05 13:42 21.01487 -153.73587 37076 ft 521 kts 110°
2026-05-05 13:43 20.99296 -153.66209 37073 ft 522 kts 110°
2026-05-05 13:43 20.97103 -153.58839 37075 ft 522 kts 110°
2026-05-05 13:44 20.94891 -153.51413 37073 ft 523 kts 110°
2026-05-05 13:44 20.92686 -153.44023 37076 ft 523 kts 111°
2026-05-05 13:45 20.90465 -153.36594 37071 ft 524 kts 111°
2026-05-05 13:45 20.88238 -153.29160 37064 ft 524 kts 111°
2026-05-05 13:46 20.86022 -153.21772 37063 ft 524 kts 111°
2026-05-05 13:46 20.83798 -153.14368 37065 ft 524 kts 111°
2026-05-05 13:47 20.81561 -153.06934 37065 ft 524 kts 110°
2026-05-05 13:47 20.80769 -153.03127 37052 ft 526 kts 96°
2026-05-05 13:47 20.80853 -152.99217 37071 ft 527 kts 81°
2026-05-05 13:48 20.81708 -152.95426 37062 ft 526 kts 67°
2026-05-05 13:48 20.83281 -152.91971 37064 ft 520 kts 58°
2026-05-05 13:48 20.86812 -152.85182 37064 ft 523 kts 58°
2026-05-05 13:49 20.90315 -152.78317 37071 ft 526 kts 59°
2026-05-05 13:49 20.93742 -152.71437 37068 ft 528 kts 59°
2026-05-05 13:50 20.97180 -152.64466 37071 ft 528 kts 60°
2026-05-05 13:50 21.00590 -152.57547 37074 ft 527 kts 59°
2026-05-05 13:51 21.04021 -152.50591 37073 ft 527 kts 60°
2026-05-05 13:51 21.07446 -152.43642 37073 ft 526 kts 60°
2026-05-05 13:52 21.10836 -152.36754 37071 ft 525 kts 60°
2026-05-05 13:52 21.14240 -152.29828 37073 ft 523 kts 60°
2026-05-05 13:53 21.17608 -152.22969 37075 ft 522 kts 60°
2026-05-05 13:53 21.20993 -152.16064 37072 ft 521 kts 60°
2026-05-05 13:54 21.24344 -152.09220 37073 ft 520 kts 60°
2026-05-05 13:54 21.27691 -152.02375 37065 ft 519 kts 60°
2026-05-05 13:55 21.31049 -151.95494 37062 ft 518 kts 60°
2026-05-05 13:55 21.34396 -151.88634 37066 ft 518 kts 60°
2026-05-05 13:56 21.37721 -151.81810 37064 ft 517 kts 60°
2026-05-05 13:56 21.41038 -151.74992 37063 ft 517 kts 60°
2026-05-05 13:57 21.44374 -151.68125 37063 ft 517 kts 60°
2026-05-05 13:57 21.47683 -151.61303 37065 ft 517 kts 60°
2026-05-05 13:58 21.51004 -151.54449 37064 ft 517 kts 60°
2026-05-05 13:58 21.54307 -151.47624 37065 ft 517 kts 60°
2026-05-05 13:59 21.59206 -151.37305 37070 ft 517 kts 61°
2026-05-05 14:00 21.63519 -151.28086 37074 ft 517 kts 61°
2026-05-05 14:00 21.67291 -151.20033 37072 ft 518 kts 61°
2026-05-05 14:01 21.70535 -151.13112 37075 ft 518 kts 61°
2026-05-05 14:01 21.73763 -151.06213 37073 ft 518 kts 61°
2026-05-05 14:02 21.77015 -150.99253 37074 ft 518 kts 61°
2026-05-05 14:02 21.80236 -150.92353 37074 ft 518 kts 61°
2026-05-05 14:03 21.83484 -150.85383 37074 ft 519 kts 61°
2026-05-05 14:03 21.86701 -150.78473 37074 ft 519 kts 61°
2026-05-05 14:04 21.89938 -150.71509 37073 ft 519 kts 61°
2026-05-05 14:04 21.93146 -150.64592 37074 ft 519 kts 61°
2026-05-05 14:05 21.96371 -150.57631 37073 ft 518 kts 61°
2026-05-05 14:05 21.99598 -150.50662 37076 ft 518 kts 61°
2026-05-05 14:06 22.02793 -150.43751 37074 ft 517 kts 61°
2026-05-05 14:06 22.05998 -150.36807 37072 ft 516 kts 61°
2026-05-05 14:07 22.09198 -150.29865 37074 ft 515 kts 61°
2026-05-05 14:07 22.12371 -150.22974 37072 ft 515 kts 61°
2026-05-05 14:08 22.15556 -150.16047 37074 ft 514 kts 61°
2026-05-05 14:08 22.18724 -150.09146 37074 ft 514 kts 61°
2026-05-05 14:09 22.21883 -150.02254 37073 ft 514 kts 61°
2026-05-05 14:09 22.25056 -149.95324 37075 ft 514 kts 61°
2026-05-05 14:10 22.28209 -149.88427 37083 ft 514 kts 62°
2026-05-05 14:10 22.31379 -149.81486 37083 ft 514 kts 62°
2026-05-05 14:11 22.34524 -149.74586 37083 ft 515 kts 62°
2026-05-05 14:11 22.37700 -149.67614 37084 ft 515 kts 62°
2026-05-05 14:12 22.40845 -149.60694 37084 ft 516 kts 61°
2026-05-05 14:12 22.44021 -149.53702 37082 ft 516 kts 62°
2026-05-05 14:13 22.47172 -149.46756 37082 ft 516 kts 62°
2026-05-05 14:13 22.50340 -149.39755 37082 ft 517 kts 62°
2026-05-05 14:14 22.53485 -149.32797 37083 ft 517 kts 62°
2026-05-05 14:14 22.56626 -149.25838 37082 ft 517 kts 62°
2026-05-05 14:15 22.59792 -149.18819 37083 ft 517 kts 62°
2026-05-05 14:15 22.62929 -149.11850 37084 ft 517 kts 62°
2026-05-05 14:16 22.66087 -149.04824 37081 ft 517 kts 62°
2026-05-05 14:16 22.69218 -148.97852 37084 ft 517 kts 62°
2026-05-05 14:17 22.72368 -148.90824 37083 ft 517 kts 62°
2026-05-05 14:17 22.75492 -148.83846 37083 ft 517 kts 62°
2026-05-05 14:18 22.78638 -148.76811 37083 ft 517 kts 62°
2026-05-05 14:18 22.81752 -148.69834 37082 ft 517 kts 62°
2026-05-05 14:19 22.84892 -148.62789 37083 ft 517 kts 62°
2026-05-05 14:19 22.88004 -148.55796 37083 ft 517 kts 62°
2026-05-05 14:20 22.91134 -148.48755 37084 ft 517 kts 62°
2026-05-05 14:20 22.94240 -148.41755 37082 ft 517 kts 62°
2026-05-05 14:21 22.97362 -148.34711 37083 ft 517 kts 62°
2026-05-05 14:21 23.00466 -148.27695 37083 ft 517 kts 62°
2026-05-05 14:22 23.03581 -148.20645 37084 ft 517 kts 62°
2026-05-05 14:22 23.06672 -148.13641 37083 ft 517 kts 62°
2026-05-05 14:23 23.09781 -148.06586 37083 ft 517 kts 62°
2026-05-05 14:23 23.12869 -147.99566 37083 ft 517 kts 62°
2026-05-05 14:24 23.15976 -147.92494 37084 ft 517 kts 62°
2026-05-05 14:24 23.19062 -147.85460 37084 ft 517 kts 62°
2026-05-05 14:25 23.21632 -147.79591 37083 ft 517 kts 62°
2026-05-05 14:25 23.24734 -147.72503 37082 ft 517 kts 62°
2026-05-05 14:26 23.27809 -147.65461 37085 ft 517 kts 62°
2026-05-05 14:26 23.30901 -147.58369 37083 ft 517 kts 62°
2026-05-05 14:27 23.33973 -147.51315 37085 ft 517 kts 62°
2026-05-05 14:27 23.37058 -147.44221 37081 ft 517 kts 62°
2026-05-05 14:28 23.40121 -147.37167 37084 ft 517 kts 62°
2026-05-05 14:28 23.43179 -147.30114 37084 ft 517 kts 62°
2026-05-05 14:29 23.46249 -147.23022 37082 ft 516 kts 62°
2026-05-05 14:29 23.49298 -147.15968 37084 ft 516 kts 62°
2026-05-05 14:30 23.52358 -147.08880 37083 ft 517 kts 62°
2026-05-05 14:30 23.55419 -147.01777 37082 ft 516 kts 62°
2026-05-05 14:31 23.58460 -146.94708 37080 ft 517 kts 62°
2026-05-05 14:31 23.61519 -146.87589 37092 ft 517 kts 62°
2026-05-05 14:32 23.64558 -146.80503 37083 ft 518 kts 62°
2026-05-05 14:32 23.67614 -146.73372 37080 ft 518 kts 62°
2026-05-05 14:33 23.70648 -146.66276 37083 ft 518 kts 62°
2026-05-05 14:33 23.73698 -146.59133 37084 ft 518 kts 62°
2026-05-05 14:34 23.76724 -146.52035 37084 ft 518 kts 62°
2026-05-05 14:34 23.79767 -146.44885 37083 ft 518 kts 62°
2026-05-05 14:35 23.82802 -146.37745 37083 ft 518 kts 62°
2026-05-05 14:35 23.85831 -146.30606 37086 ft 518 kts 62°
2026-05-05 14:36 23.88859 -146.23460 37081 ft 518 kts 62°
2026-05-05 14:36 23.91883 -146.16314 37084 ft 518 kts 62°
2026-05-05 14:37 23.94904 -146.09159 37084 ft 518 kts 62°
2026-05-05 14:37 23.97900 -146.02056 37084 ft 518 kts 62°
2026-05-05 14:38 24.00915 -145.94900 37084 ft 518 kts 62°
2026-05-05 14:38 24.03923 -145.87743 37083 ft 518 kts 62°
2026-05-05 14:39 24.06929 -145.80581 37083 ft 518 kts 62°
2026-05-05 14:39 24.09928 -145.73424 37084 ft 517 kts 62°
2026-05-05 14:40 24.12930 -145.66252 37083 ft 518 kts 62°
2026-05-05 14:40 24.15923 -145.59086 37083 ft 517 kts 63°
2026-05-05 14:41 24.18897 -145.51956 37081 ft 517 kts 63°
2026-05-05 14:41 24.21881 -145.44790 37083 ft 517 kts 63°
2026-05-05 14:42 24.24861 -145.37622 37080 ft 517 kts 63°
2026-05-05 14:42 24.27835 -145.30456 37084 ft 516 kts 63°
2026-05-05 14:43 24.30805 -145.23293 37086 ft 516 kts 63°
2026-05-05 14:43 24.33770 -145.16127 37094 ft 515 kts 63°
2026-05-05 14:44 24.36711 -145.09006 37104 ft 515 kts 63°
2026-05-05 14:44 24.39629 -145.01825 37093 ft 516 kts 66°
2026-05-05 14:45 24.41673 -144.94270 37087 ft 519 kts 78°
2026-05-05 14:45 24.42744 -144.86441 37098 ft 519 kts 81°
2026-05-05 14:46 24.43727 -144.78588 37096 ft 520 kts 81°
2026-05-05 14:46 24.44741 -144.70737 37091 ft 520 kts 81°
2026-05-05 14:47 24.45783 -144.62881 37090 ft 520 kts 80°
2026-05-05 14:47 24.46829 -144.55025 37082 ft 520 kts 80°
2026-05-05 14:48 24.47866 -144.47215 37083 ft 520 kts 80°
2026-05-05 14:48 24.48903 -144.39345 37082 ft 521 kts 81°
2026-05-05 14:49 24.49934 -144.31480 37084 ft 521 kts 81°
2026-05-05 14:49 24.50962 -144.23604 37084 ft 521 kts 81°
2026-05-05 14:50 24.51985 -144.15725 37084 ft 521 kts 81°
2026-05-05 14:50 24.53006 -144.07846 37083 ft 522 kts 81°
2026-05-05 14:51 24.54025 -143.99946 37083 ft 522 kts 81°
2026-05-05 14:51 24.55036 -143.92062 37083 ft 521 kts 81°
2026-05-05 14:52 24.56045 -143.84169 37081 ft 521 kts 81°
2026-05-05 14:52 24.57051 -143.76274 37083 ft 521 kts 81°
2026-05-05 14:53 24.58045 -143.68433 37083 ft 521 kts 81°
2026-05-05 14:53 24.59042 -143.60535 37086 ft 521 kts 81°
2026-05-05 14:54 24.60034 -143.52644 37083 ft 521 kts 81°
2026-05-05 14:54 24.61022 -143.44749 37058 ft 521 kts 81°
2026-05-05 14:55 24.62002 -143.36888 37040 ft 521 kts 81°
2026-05-05 14:55 24.62980 -143.29004 37034 ft 521 kts 81°
2026-05-05 14:56 24.63954 -143.21126 37036 ft 520 kts 81°
2026-05-05 14:56 24.64922 -143.13247 37036 ft 519 kts 81°
2026-05-05 14:57 24.65885 -143.05377 37032 ft 518 kts 81°
2026-05-05 14:57 24.66842 -142.97528 37041 ft 518 kts 81°
2026-05-05 14:58 24.67790 -142.89723 37037 ft 518 kts 81°
2026-05-05 14:58 24.68740 -142.81866 37038 ft 518 kts 81°
2026-05-05 14:59 24.69685 -142.74016 37034 ft 518 kts 81°
2026-05-05 14:59 24.70625 -142.66160 37033 ft 518 kts 81°
2026-05-05 15:00 24.71404 -142.59626 37036 ft 518 kts 81°
2026-05-05 15:00 24.72497 -142.50427 37041 ft 518 kts 81°
2026-05-05 15:01 24.73426 -142.42561 37033 ft 519 kts 81°
2026-05-05 15:01 24.74345 -142.34741 37027 ft 519 kts 82°
2026-05-05 15:02 24.75268 -142.26853 37028 ft 519 kts 82°
2026-05-05 15:02 24.76187 -142.18971 37028 ft 519 kts 82°
2026-05-05 15:03 24.77101 -142.11090 37027 ft 519 kts 82°
2026-05-05 15:03 24.78010 -142.03212 37028 ft 519 kts 82°
2026-05-05 15:04 24.78911 -141.95372 37036 ft 519 kts 82°
2026-05-05 15:04 24.79814 -141.87489 37038 ft 519 kts 82°
2026-05-05 15:05 24.81159 -141.75646 37026 ft 519 kts 82°
2026-05-05 15:06 24.82049 -141.67771 37028 ft 519 kts 82°
2026-05-05 15:06 24.82937 -141.59875 37027 ft 519 kts 82°
2026-05-05 15:07 24.83819 -141.51993 37029 ft 519 kts 82°
2026-05-05 15:07 24.84697 -141.44111 37028 ft 519 kts 82°
2026-05-05 15:08 24.85129 -141.40221 37028 ft 518 kts 82°
2026-05-05 15:08 24.85219 -141.39414 37028 ft 518 kts 82°
2026-05-05 15:11 24.85853 -141.33674 37028 ft 518 kts 82°
2026-05-05 15:12 24.86722 -141.25786 37027 ft 518 kts 82°
2026-05-05 15:12 24.87586 -141.17915 37027 ft 518 kts 82°
2026-05-05 15:13 24.88444 -141.10043 37027 ft 517 kts 82°
2026-05-05 15:13 24.89298 -141.02170 37030 ft 517 kts 82°
2026-05-05 15:14 24.90142 -140.94358 37026 ft 517 kts 82°
2026-05-05 15:14 24.90987 -140.86492 37027 ft 516 kts 82°
2026-05-05 15:15 24.91826 -140.78641 37036 ft 516 kts 82°
2026-05-05 15:15 24.92661 -140.70789 37038 ft 516 kts 82°
2026-05-05 15:16 24.93358 -140.64206 37035 ft 516 kts 82°
2026-05-05 15:16 24.94181 -140.56399 37043 ft 516 kts 82°
2026-05-05 15:17 24.95005 -140.48542 37042 ft 516 kts 82°
2026-05-05 15:17 24.95826 -140.40671 37033 ft 516 kts 82°
2026-05-05 15:18 24.96643 -140.32804 37040 ft 516 kts 82°
2026-05-05 15:18 24.97453 -140.24945 37039 ft 516 kts 82°
2026-05-05 15:19 24.98262 -140.17075 37040 ft 516 kts 82°
2026-05-05 15:19 24.99066 -140.09196 37033 ft 516 kts 82°
2026-05-05 15:20 24.99868 -140.01385 37040 ft 516 kts 81°
2026-05-05 15:20 25.01271 -139.93653 37046 ft 514 kts 74°
2026-05-05 15:21 25.02994 -139.85989 37033 ft 514 kts 73°
2026-05-05 15:21 25.04714 -139.78317 37033 ft 515 kts 74°
2026-05-05 15:22 25.06384 -139.70689 37035 ft 515 kts 74°
2026-05-05 15:22 25.08042 -139.63014 37037 ft 515 kts 74°
2026-05-05 15:23 25.09696 -139.55328 37053 ft 514 kts 74°
2026-05-05 15:23 25.11347 -139.47642 37053 ft 514 kts 75°
2026-05-05 15:24 25.12996 -139.39950 37054 ft 514 kts 75°
2026-05-05 15:24 25.14640 -139.32262 37058 ft 514 kts 75°
2026-05-05 15:25 25.16271 -139.24615 37059 ft 514 kts 75°
2026-05-05 15:25 25.17907 -139.16928 37052 ft 515 kts 75°
2026-05-05 15:26 25.19542 -139.09228 37055 ft 515 kts 75°
2026-05-05 15:26 25.21172 -139.01527 37053 ft 515 kts 75°
2026-05-05 15:27 25.22794 -138.93834 37056 ft 515 kts 75°
2026-05-05 15:27 25.24416 -138.86125 37058 ft 515 kts 75°
2026-05-05 15:28 25.26030 -138.78431 37055 ft 514 kts 75°
2026-05-05 15:28 25.27642 -138.70727 37055 ft 514 kts 75°
2026-05-05 15:29 25.29251 -138.63024 37056 ft 514 kts 75°
2026-05-05 15:29 25.30853 -138.55317 37056 ft 514 kts 75°
2026-05-05 15:30 25.32439 -138.47678 37056 ft 513 kts 75°
2026-05-05 15:30 25.34037 -138.39961 37057 ft 513 kts 75°
2026-05-05 15:31 25.35627 -138.32257 37056 ft 513 kts 75°
2026-05-05 15:31 25.37199 -138.24613 37055 ft 513 kts 75°
2026-05-05 15:32 25.37438 -138.23451 37054 ft 513 kts 75°
2026-05-05 15:33 25.38269 -138.19409 37055 ft 512 kts 75°
2026-05-05 15:34 25.39833 -138.11778 37058 ft 512 kts 75°
2026-05-05 15:34 25.41407 -138.04071 37057 ft 512 kts 75°
2026-05-05 15:35 25.42970 -137.96399 37056 ft 512 kts 75°
2026-05-05 15:35 25.44531 -137.88718 37056 ft 512 kts 75°
2026-05-05 15:36 25.46089 -137.81025 37056 ft 512 kts 75°
2026-05-05 15:36 25.47643 -137.73333 37058 ft 512 kts 75°
2026-05-05 15:37 25.49194 -137.65640 37057 ft 512 kts 75°
2026-05-05 15:37 25.50739 -137.57948 37058 ft 512 kts 75°
2026-05-05 15:38 25.52273 -137.50289 37055 ft 512 kts 75°
2026-05-05 15:38 25.53810 -137.42592 37056 ft 512 kts 75°
2026-05-05 15:39 25.55344 -137.34893 37066 ft 512 kts 75°
2026-05-05 15:39 25.56871 -137.27195 37065 ft 512 kts 75°
2026-05-05 15:40 25.58397 -137.19488 37067 ft 512 kts 75°
2026-05-05 15:40 25.59921 -137.11773 37065 ft 513 kts 75°
2026-05-05 15:41 25.61442 -137.04046 37065 ft 513 kts 75°
2026-05-05 15:41 25.62949 -136.96370 37065 ft 514 kts 75°
2026-05-05 15:42 25.64464 -136.88628 37066 ft 514 kts 75°
2026-05-05 15:42 25.65975 -136.80884 37064 ft 514 kts 75°
2026-05-05 15:43 25.67485 -136.73131 37064 ft 514 kts 75°
2026-05-05 15:43 25.68989 -136.65375 37065 ft 515 kts 75°
2026-05-05 15:44 25.70491 -136.57609 37064 ft 515 kts 75°
2026-05-05 15:44 25.71985 -136.49851 37065 ft 514 kts 75°
2026-05-05 15:45 25.73475 -136.42098 37064 ft 514 kts 75°
2026-05-05 15:45 25.74953 -136.34386 37062 ft 514 kts 75°
2026-05-05 15:46 25.76436 -136.26626 37065 ft 513 kts 75°
2026-05-05 15:46 25.77914 -136.18873 37065 ft 513 kts 76°
2026-05-05 15:47 25.79384 -136.11130 37063 ft 513 kts 75°
2026-05-05 15:47 25.80841 -136.03436 37064 ft 512 kts 76°
2026-05-05 15:48 25.82304 -135.95689 37064 ft 512 kts 76°
2026-05-05 15:48 25.83760 -135.87956 37064 ft 511 kts 76°
2026-05-05 15:49 25.85211 -135.80223 37064 ft 511 kts 76°
2026-05-05 15:49 25.86656 -135.72493 37064 ft 511 kts 76°
2026-05-05 15:50 25.88099 -135.64759 37065 ft 511 kts 76°
2026-05-05 15:50 25.89538 -135.57021 37065 ft 512 kts 76°
2026-05-05 15:51 25.90965 -135.49316 37066 ft 512 kts 76°
2026-05-05 15:51 25.92399 -135.41562 37065 ft 513 kts 76°
2026-05-05 15:52 25.93831 -135.33785 37065 ft 514 kts 76°
2026-05-05 15:52 25.95262 -135.25998 37065 ft 514 kts 76°
2026-05-05 15:53 25.96689 -135.18195 37064 ft 515 kts 76°
2026-05-05 15:53 25.98103 -135.10437 37064 ft 515 kts 76°
2026-05-05 15:54 25.99521 -135.02608 37065 ft 516 kts 77°
2026-05-05 15:54 26.00216 -134.94651 37067 ft 518 kts 87°
2026-05-05 15:55 26.00300 -134.86645 37067 ft 518 kts 88°
2026-05-05 15:55 26.00366 -134.78627 37061 ft 518 kts 88°
2026-05-05 15:56 26.00467 -134.70621 37065 ft 518 kts 88°
2026-05-05 15:56 26.00585 -134.62659 37064 ft 518 kts 88°
2026-05-05 15:57 26.00704 -134.54654 37063 ft 518 kts 88°
2026-05-05 15:57 26.00818 -134.46632 37069 ft 518 kts 88°
2026-05-05 15:58 26.00924 -134.38655 37063 ft 518 kts 88°
2026-05-05 15:58 26.01026 -134.30636 37065 ft 518 kts 88°
2026-05-05 15:59 26.01123 -134.22620 37065 ft 519 kts 88°
2026-05-05 15:59 26.01217 -134.14593 37064 ft 519 kts 88°
2026-05-05 16:00 26.01305 -134.06569 37065 ft 519 kts 88°
2026-05-05 16:00 26.01389 -133.98585 37064 ft 519 kts 88°
2026-05-05 16:01 26.01468 -133.90554 37063 ft 519 kts 88°
2026-05-05 16:01 26.01544 -133.82524 37066 ft 519 kts 88°
2026-05-05 16:02 26.01615 -133.74498 37064 ft 519 kts 88°
2026-05-05 16:02 26.01682 -133.66469 37065 ft 519 kts 88°
2026-05-05 16:03 26.01744 -133.58435 37064 ft 519 kts 88°
2026-05-05 16:03 26.01802 -133.50399 37064 ft 519 kts 88°
2026-05-05 16:04 26.01846 -133.43722 37066 ft 520 kts 88°
2026-05-05 16:04 26.01895 -133.35687 37064 ft 520 kts 88°
2026-05-05 16:05 26.01941 -133.27651 37065 ft 520 kts 89°
2026-05-05 16:05 26.01982 -133.19608 37065 ft 520 kts 89°
2026-05-05 16:06 26.02018 -133.11570 37064 ft 520 kts 89°
2026-05-05 16:06 26.02050 -133.03529 37065 ft 519 kts 89°
2026-05-05 16:07 26.02077 -132.95499 37064 ft 519 kts 89°
2026-05-05 16:07 26.02100 -132.87460 37065 ft 520 kts 89°
2026-05-05 16:08 26.02118 -132.79472 37065 ft 520 kts 89°
2026-05-05 16:08 26.02133 -132.71429 37063 ft 520 kts 89°
2026-05-05 16:09 26.02143 -132.63391 37066 ft 520 kts 89°
2026-05-05 16:09 26.02148 -132.55343 37064 ft 520 kts 89°
2026-05-05 16:10 26.02148 -132.47281 37064 ft 520 kts 89°
2026-05-05 16:10 26.02146 -132.39273 37063 ft 521 kts 89°
2026-05-05 16:11 26.02137 -132.31211 37065 ft 521 kts 89°
2026-05-05 16:12 26.02106 -132.15120 37065 ft 522 kts 90°
2026-05-05 16:13 26.02045 -131.94920 37069 ft 522 kts 90°
2026-05-05 16:13 26.02011 -131.86850 37076 ft 522 kts 90°
2026-05-05 16:14 26.01932 -131.70747 37066 ft 522 kts 90°
2026-05-05 16:15 26.01836 -131.54596 37064 ft 522 kts 90°
2026-05-05 16:16 26.01721 -131.38441 37065 ft 522 kts 90°
2026-05-05 16:17 26.01623 -131.26370 37066 ft 523 kts 90°
2026-05-05 16:18 26.01515 -131.14244 37065 ft 523 kts 90°
2026-05-05 16:19 26.01397 -131.02094 37064 ft 523 kts 90°
2026-05-05 16:19 26.01269 -130.90013 37065 ft 523 kts 90°
2026-05-05 16:20 26.01082 -130.73819 37064 ft 524 kts 90°
2026-05-05 16:22 26.00821 -130.53540 37054 ft 525 kts 91°
2026-05-05 16:23 26.00594 -130.37301 37053 ft 525 kts 91°
2026-05-05 16:23 26.00410 -130.25099 37059 ft 526 kts 91°
2026-05-05 16:24 26.00282 -130.17012 37055 ft 526 kts 91°
2026-05-05 16:25 26.00082 -130.04805 37055 ft 526 kts 91°
2026-05-05 16:25 26.00168 -129.92605 37046 ft 526 kts 87°
2026-05-05 16:26 26.00789 -129.76355 37054 ft 526 kts 87°
2026-05-05 16:27 26.01066 -129.68225 37055 ft 526 kts 88°
2026-05-05 16:27 26.01324 -129.60102 37054 ft 526 kts 88°
2026-05-05 16:28 26.01576 -129.51968 37054 ft 526 kts 88°
2026-05-05 16:28 26.01826 -129.43839 37053 ft 526 kts 88°
2026-05-05 16:29 26.02074 -129.35700 37056 ft 526 kts 88°
2026-05-05 16:29 26.02313 -129.27612 37055 ft 527 kts 88°
2026-05-05 16:30 26.02551 -129.19480 37058 ft 526 kts 88°
2026-05-05 16:30 26.02784 -129.11331 37057 ft 527 kts 88°
2026-05-05 16:31 26.03014 -129.03187 37061 ft 527 kts 88°
2026-05-05 16:31 26.03238 -128.95032 37053 ft 527 kts 88°
2026-05-05 16:32 26.03457 -128.86915 37054 ft 528 kts 88°
2026-05-05 16:32 26.03673 -128.78757 37054 ft 528 kts 88°
2026-05-05 16:33 26.03883 -128.70579 37055 ft 528 kts 88°
2026-05-05 16:33 26.04090 -128.62406 37056 ft 529 kts 89°
2026-05-05 16:34 26.04292 -128.54220 37054 ft 529 kts 89°
2026-05-05 16:34 26.04490 -128.46043 37055 ft 529 kts 89°
2026-05-05 16:35 26.04682 -128.37852 37055 ft 529 kts 89°
2026-05-05 16:35 26.04869 -128.29735 37055 ft 529 kts 89°
2026-05-05 16:36 26.05053 -128.21548 37055 ft 529 kts 89°
2026-05-05 16:36 26.05232 -128.13372 37059 ft 528 kts 89°
2026-05-05 16:37 26.05405 -128.05202 37058 ft 528 kts 89°
2026-05-05 16:37 26.05575 -127.97027 37054 ft 528 kts 89°
2026-05-05 16:38 26.05739 -127.88901 37054 ft 528 kts 89°
2026-05-05 16:38 26.05900 -127.80735 37055 ft 528 kts 89°
2026-05-05 16:39 26.06056 -127.72561 37054 ft 528 kts 89°
2026-05-05 16:39 26.06207 -127.64384 37054 ft 528 kts 89°
2026-05-05 16:40 26.06354 -127.56201 37056 ft 529 kts 89°
2026-05-05 16:40 26.06496 -127.48023 37058 ft 529 kts 90°
2026-05-05 16:41 26.06634 -127.39842 37054 ft 529 kts 90°
2026-05-05 16:41 26.06767 -127.31693 37055 ft 530 kts 90°
2026-05-05 16:42 26.06895 -127.23494 37055 ft 530 kts 90°
2026-05-05 16:42 26.07017 -127.15293 37059 ft 531 kts 90°
2026-05-05 16:43 26.07138 -127.07064 37054 ft 532 kts 90°
2026-05-05 16:43 26.07253 -126.98832 37054 ft 532 kts 90°
2026-05-05 16:44 26.07363 -126.90598 37058 ft 533 kts 90°
2026-05-05 16:44 26.07470 -126.82345 37055 ft 533 kts 90°
2026-05-05 16:45 26.07572 -126.74140 37060 ft 534 kts 91°
2026-05-05 16:45 26.07669 -126.65877 37052 ft 534 kts 91°
2026-05-05 16:46 26.07760 -126.57595 37056 ft 535 kts 91°
2026-05-05 16:46 26.07848 -126.49333 37056 ft 535 kts 91°
2026-05-05 16:47 26.07931 -126.41050 37054 ft 535 kts 91°
2026-05-05 16:47 26.08009 -126.32758 37060 ft 535 kts 91°
2026-05-05 16:48 26.08082 -126.24473 37059 ft 536 kts 91°
2026-05-05 16:48 26.08150 -126.16226 37058 ft 535 kts 92°
2026-05-05 16:49 26.08214 -126.07926 37053 ft 535 kts 92°
2026-05-05 16:49 26.08274 -125.99644 37058 ft 535 kts 92°
2026-05-05 16:50 26.08327 -125.91420 37058 ft 534 kts 92°
2026-05-05 16:50 26.08378 -125.83154 37053 ft 534 kts 92°
2026-05-05 16:51 26.08423 -125.74885 37055 ft 534 kts 92°
2026-05-05 16:51 26.08457 -125.68016 37053 ft 534 kts 92°
2026-05-05 16:52 26.08493 -125.59743 37054 ft 535 kts 92°
2026-05-05 16:52 26.08524 -125.51468 37052 ft 536 kts 92°
2026-05-05 16:53 26.08551 -125.43174 37056 ft 536 kts 92°
2026-05-05 16:53 26.08573 -125.34846 37263 ft 539 kts 92°
2026-05-05 16:54 26.08583 -125.30733 37499 ft 539 kts 92°
2026-05-05 16:54 26.08591 -125.26565 37713 ft 539 kts 92°
2026-05-05 16:54 26.08599 -125.22393 37906 ft 540 kts 92°
2026-05-05 16:54 26.08605 -125.18218 38086 ft 540 kts 92°
2026-05-05 16:55 26.08610 -125.14023 38232 ft 542 kts 92°
2026-05-05 16:55 26.08613 -125.09824 38399 ft 543 kts 93°
2026-05-05 16:55 26.08614 -125.05633 38608 ft 542 kts 93°
2026-05-05 16:55 26.08615 -125.01434 38788 ft 543 kts 93°
2026-05-05 16:56 26.08614 -124.97238 38903 ft 544 kts 93°
2026-05-05 16:56 26.08613 -124.93021 38982 ft 545 kts 93°
2026-05-05 16:56 26.08607 -124.84620 39054 ft 547 kts 93°
2026-05-05 16:57 26.08596 -124.76155 39055 ft 547 kts 93°
2026-05-05 16:57 26.08581 -124.67694 39058 ft 547 kts 93°
2026-05-05 16:58 26.08559 -124.59222 39064 ft 547 kts 94°
2026-05-05 16:58 26.08532 -124.50746 39077 ft 547 kts 94°
2026-05-05 16:59 26.08501 -124.42279 39070 ft 548 kts 94°
2026-05-05 16:59 26.08465 -124.33797 39077 ft 548 kts 94°
2026-05-05 17:00 26.08424 -124.25360 39072 ft 548 kts 94°
2026-05-05 17:00 26.08377 -124.16875 39073 ft 549 kts 94°
2026-05-05 17:01 26.08326 -124.08383 39073 ft 549 kts 94°
2026-05-05 17:01 26.08270 -123.99882 39081 ft 549 kts 94°
2026-05-05 17:02 26.08209 -123.91398 39073 ft 549 kts 94°
2026-05-05 17:02 26.08143 -123.82907 39074 ft 549 kts 94°
2026-05-05 17:03 26.08072 -123.74413 39073 ft 549 kts 94°
2026-05-05 17:03 26.07997 -123.65926 39068 ft 548 kts 94°
2026-05-05 17:04 26.07915 -123.57439 39061 ft 549 kts 94°
2026-05-05 17:04 26.07830 -123.49013 39067 ft 548 kts 94°
2026-05-05 17:05 26.07740 -123.40522 39064 ft 548 kts 95°
2026-05-05 17:05 26.07643 -123.32030 39062 ft 548 kts 95°
2026-05-05 17:06 26.07542 -123.23559 39067 ft 548 kts 95°
2026-05-05 17:06 26.07436 -123.15062 39063 ft 549 kts 95°
2026-05-05 17:07 26.07328 -123.06623 39066 ft 549 kts 95°
2026-05-05 17:07 26.07212 -122.98130 39064 ft 549 kts 95°
2026-05-05 17:08 26.07090 -122.89616 39065 ft 550 kts 96°
2026-05-05 17:08 26.06964 -122.81122 39067 ft 550 kts 96°
2026-05-05 17:09 26.06834 -122.72617 39064 ft 550 kts 96°
2026-05-05 17:09 26.06698 -122.64096 39064 ft 551 kts 96°
2026-05-05 17:10 26.06556 -122.55560 39067 ft 551 kts 96°
2026-05-05 17:10 26.06411 -122.47094 39070 ft 551 kts 96°
2026-05-05 17:11 26.06260 -122.38565 39072 ft 551 kts 97°
2026-05-05 17:11 26.06104 -122.30041 39075 ft 551 kts 97°
2026-05-05 17:12 26.05943 -122.21512 39071 ft 552 kts 97°
2026-05-05 17:12 26.05776 -122.12980 39074 ft 552 kts 97°
2026-05-05 17:13 26.05604 -122.04444 39073 ft 552 kts 97°
2026-05-05 17:13 26.05429 -121.95908 39074 ft 552 kts 97°
2026-05-05 17:14 26.05249 -121.87433 39074 ft 552 kts 97°
2026-05-05 17:14 26.05062 -121.78888 39076 ft 552 kts 97°
2026-05-05 17:15 26.04871 -121.70360 39082 ft 551 kts 97°
2026-05-05 17:15 26.04675 -121.61827 39082 ft 551 kts 97°
2026-05-05 17:16 26.04474 -121.53300 39084 ft 551 kts 97°
2026-05-05 17:16 26.04268 -121.44828 39081 ft 551 kts 97°
2026-05-05 17:17 26.04057 -121.36317 39084 ft 551 kts 98°
2026-05-05 17:17 26.03841 -121.27799 39083 ft 551 kts 98°
2026-05-05 17:18 26.03619 -121.19275 39077 ft 551 kts 98°
2026-05-05 17:18 26.03394 -121.10767 39070 ft 550 kts 98°
2026-05-05 17:19 26.03163 -121.02262 39075 ft 550 kts 98°
2026-05-05 17:19 26.02928 -120.93802 39072 ft 549 kts 98°
2026-05-05 17:20 26.02689 -120.85317 39074 ft 549 kts 98°
2026-05-05 17:20 26.02439 -120.76785 39084 ft 554 kts 98°
2026-05-05 17:21 26.02185 -120.68190 39082 ft 558 kts 99°
2026-05-05 17:22 26.01795 -120.55198 39079 ft 562 kts 99°
2026-05-05 17:22 26.01528 -120.46511 39071 ft 563 kts 99°
2026-05-05 17:23 26.01257 -120.37869 39073 ft 561 kts 99°
2026-05-05 17:23 26.00978 -120.29200 39070 ft 559 kts 99°
2026-05-05 17:24 26.00694 -120.20565 39074 ft 557 kts 99°
2026-05-05 17:24 26.00410 -120.12025 39071 ft 556 kts 99°
2026-05-05 17:25 26.00179 -120.03425 39073 ft 558 kts 96°
2026-05-05 17:25 26.00912 -119.94778 39062 ft 568 kts 84°
2026-05-05 17:26 26.02630 -119.86177 39070 ft 570 kts 82°
2026-05-05 17:26 26.04434 -119.77622 39066 ft 571 kts 82°
2026-05-05 17:27 26.06200 -119.69002 39066 ft 571 kts 82°
2026-05-05 17:27 26.07915 -119.60368 39063 ft 572 kts 82°
2026-05-05 17:28 26.09617 -119.51702 39067 ft 573 kts 82°
2026-05-05 17:28 26.11322 -119.43020 39066 ft 574 kts 82°
2026-05-05 17:29 26.13028 -119.34328 39070 ft 575 kts 82°
2026-05-05 17:29 26.14723 -119.25670 39074 ft 575 kts 82°
2026-05-05 17:30 26.16424 -119.16948 39073 ft 576 kts 82°
2026-05-05 17:30 26.18124 -119.08206 39078 ft 577 kts 82°
2026-05-05 17:31 26.19817 -118.99461 39070 ft 578 kts 82°
2026-05-05 17:31 26.21500 -118.90747 39078 ft 579 kts 82°
2026-05-05 17:32 26.23186 -118.81973 39066 ft 579 kts 82°
2026-05-05 17:32 26.24871 -118.73179 39064 ft 580 kts 82°
2026-05-05 17:33 26.26550 -118.64392 39064 ft 581 kts 82°
2026-05-05 17:33 26.28229 -118.55582 39066 ft 581 kts 82°
2026-05-05 17:34 26.29901 -118.46767 39065 ft 581 kts 82°
2026-05-05 17:34 26.31556 -118.38007 39067 ft 581 kts 82°
2026-05-05 17:35 26.33217 -118.29191 39077 ft 581 kts 82°
2026-05-05 17:35 26.34871 -118.20377 39072 ft 580 kts 82°
2026-05-05 17:36 26.36521 -118.11561 39075 ft 580 kts 82°
2026-05-05 17:36 26.38165 -118.02738 39073 ft 580 kts 82°
2026-05-05 17:37 26.39793 -117.93973 39073 ft 580 kts 82°
2026-05-05 17:37 26.41425 -117.85158 39075 ft 581 kts 82°
2026-05-05 17:38 26.43056 -117.76314 39072 ft 581 kts 82°
2026-05-05 17:38 26.44678 -117.67484 39066 ft 581 kts 83°
2026-05-05 17:39 26.46299 -117.58622 39062 ft 581 kts 83°
2026-05-05 17:39 26.47901 -117.49840 39065 ft 581 kts 83°
2026-05-05 17:40 26.49508 -117.40993 39066 ft 581 kts 83°
2026-05-05 17:40 26.51111 -117.32140 39064 ft 581 kts 83°
2026-05-05 17:41 26.52706 -117.23307 39065 ft 581 kts 83°
2026-05-05 17:41 26.54027 -117.15960 39057 ft 580 kts 83°
2026-05-05 17:42 26.55612 -117.07114 39064 ft 580 kts 84°
2026-05-05 17:42 26.57442 -116.96856 39063 ft 579 kts 84°
2026-05-05 17:43 26.58756 -116.89461 39052 ft 579 kts 84°
2026-05-05 17:43 26.60311 -116.80687 39038 ft 578 kts 84°
2026-05-05 17:44 26.61868 -116.71865 39035 ft 578 kts 84°
2026-05-05 17:44 26.63416 -116.63056 39036 ft 577 kts 84°
2026-05-05 17:45 26.64960 -116.54245 39038 ft 577 kts 84°
2026-05-05 17:45 26.66497 -116.45439 39040 ft 577 kts 84°
2026-05-05 17:46 26.68019 -116.36685 39036 ft 576 kts 84°
2026-05-05 17:46 26.69544 -116.27885 39036 ft 576 kts 84°
2026-05-05 17:47 26.71060 -116.19086 39038 ft 576 kts 84°
2026-05-05 17:47 26.72573 -116.10285 39035 ft 576 kts 84°
2026-05-05 17:48 26.74079 -116.01486 39037 ft 576 kts 84°
2026-05-05 17:48 26.75579 -115.92689 39037 ft 576 kts 84°
2026-05-05 17:49 26.77075 -115.83889 39036 ft 575 kts 84°
2026-05-05 17:49 26.78556 -115.75134 39038 ft 575 kts 84°
2026-05-05 17:50 26.80039 -115.66338 39036 ft 575 kts 85°
2026-05-05 17:50 26.81515 -115.57547 39037 ft 575 kts 85°
2026-05-05 17:51 26.82989 -115.48738 39037 ft 574 kts 85°
2026-05-05 17:51 26.84445 -115.39994 39037 ft 574 kts 85°
2026-05-05 17:52 26.85905 -115.31196 39038 ft 574 kts 85°
2026-05-05 17:52 26.87358 -115.22404 39038 ft 574 kts 85°
2026-05-05 17:53 26.88807 -115.13601 39027 ft 575 kts 85°
2026-05-05 17:53 26.90251 -115.04789 39024 ft 575 kts 85°
2026-05-05 17:54 26.91689 -114.95980 39016 ft 575 kts 85°
2026-05-05 17:54 26.93122 -114.87173 39021 ft 574 kts 85°
2026-05-05 17:55 26.94548 -114.78363 39018 ft 574 kts 85°
2026-05-05 17:55 26.95969 -114.69549 39031 ft 574 kts 85°
2026-05-05 17:56 26.97376 -114.60797 39029 ft 574 kts 85°
2026-05-05 17:56 26.98786 -114.51981 39013 ft 574 kts 85°
2026-05-05 17:57 27.00191 -114.43157 39030 ft 574 kts 85°
2026-05-05 17:57 27.01590 -114.34340 39027 ft 574 kts 85°
2026-05-05 17:58 27.02983 -114.25517 39027 ft 574 kts 85°
2026-05-05 17:58 27.04371 -114.16701 39028 ft 574 kts 85°
2026-05-05 17:59 27.05752 -114.07884 39028 ft 574 kts 85°
2026-05-05 17:59 27.07122 -113.99099 39030 ft 574 kts 85°
2026-05-05 18:00 27.08492 -113.90273 39018 ft 575 kts 85°
2026-05-05 18:00 27.09859 -113.81443 39031 ft 575 kts 85°
2026-05-05 18:01 27.11221 -113.72602 39030 ft 575 kts 85°
2026-05-05 18:01 27.12576 -113.63760 39031 ft 575 kts 85°
2026-05-05 18:02 27.13919 -113.54965 39029 ft 574 kts 85°
2026-05-05 18:02 27.15266 -113.46113 39032 ft 574 kts 85°
2026-05-05 18:03 27.16603 -113.37273 39017 ft 574 kts 85°
2026-05-05 18:03 27.17935 -113.28433 39031 ft 573 kts 85°
2026-05-05 18:04 27.19261 -113.19590 39026 ft 573 kts 86°
2026-05-05 18:04 27.20572 -113.10817 39030 ft 573 kts 86°
2026-05-05 18:05 27.21886 -113.01982 39030 ft 573 kts 86°
2026-05-05 18:05 27.23196 -112.93138 39029 ft 573 kts 86°
2026-05-05 18:06 27.24499 -112.84295 39031 ft 573 kts 86°
2026-05-05 18:06 27.25794 -112.75461 39026 ft 573 kts 86°
2026-05-05 18:07 27.27077 -112.66677 39026 ft 573 kts 86°
2026-05-05 18:07 27.28361 -112.57850 39032 ft 572 kts 86°
2026-05-05 18:08 27.29641 -112.49010 39030 ft 572 kts 86°
2026-05-05 18:08 27.30914 -112.40171 39024 ft 572 kts 86°
2026-05-05 18:09 27.32180 -112.31335 39024 ft 573 kts 86°
2026-05-05 18:09 27.33009 -112.22474 39012 ft 566 kts 95°
2026-05-05 18:10 27.33126 -112.13635 39019 ft 565 kts 96°
2026-05-05 18:10 27.33184 -112.04777 39014 ft 566 kts 96°
2026-05-05 18:11 27.33284 -111.95916 39022 ft 567 kts 95°
2026-05-05 18:11 27.33414 -111.87099 39021 ft 567 kts 95°
2026-05-05 18:12 27.33545 -111.78242 39010 ft 566 kts 95°
2026-05-05 18:12 27.33667 -111.69382 39012 ft 566 kts 95°
2026-05-05 18:13 27.33781 -111.60533 39012 ft 565 kts 95°
2026-05-05 18:13 27.33888 -111.51686 39012 ft 564 kts 96°
2026-05-05 18:14 27.33990 -111.42946 39006 ft 562 kts 96°
2026-05-05 18:14 27.34085 -111.34166 39018 ft 560 kts 96°
2026-05-05 18:15 27.34174 -111.25423 39011 ft 558 kts 96°
2026-05-05 18:15 27.34257 -111.16704 39014 ft 557 kts 96°
2026-05-05 18:16 27.34334 -111.08003 39022 ft 556 kts 96°
2026-05-05 18:16 27.34406 -110.99348 39023 ft 556 kts 96°
2026-05-05 18:17 27.34473 -110.90645 39020 ft 557 kts 96°
2026-05-05 18:17 27.34534 -110.81920 39026 ft 558 kts 96°
2026-05-05 18:18 27.34591 -110.73182 39029 ft 559 kts 96°
2026-05-05 18:18 27.34643 -110.64436 39027 ft 559 kts 96°
2026-05-05 18:19 27.34690 -110.55684 39030 ft 560 kts 96°
2026-05-05 18:19 27.34730 -110.46909 39029 ft 560 kts 96°
2026-05-05 18:20 27.34765 -110.38208 39028 ft 560 kts 96°
2026-05-05 18:20 27.34794 -110.29440 39013 ft 561 kts 96°
2026-05-05 18:21 27.34819 -110.20664 39030 ft 561 kts 96°
2026-05-05 18:21 27.34838 -110.11884 39027 ft 561 kts 96°
2026-05-05 18:22 27.34851 -110.03102 39028 ft 561 kts 96°
2026-05-05 18:22 27.34859 -109.94322 39030 ft 561 kts 96°
2026-05-05 18:23 27.34862 -109.85545 39027 ft 560 kts 96°
2026-05-05 18:23 27.34859 -109.76789 39028 ft 560 kts 96°
2026-05-05 18:24 27.34849 -109.68078 39018 ft 559 kts 96°
2026-05-05 18:24 27.34836 -109.59332 39030 ft 558 kts 96°
2026-05-05 18:25 27.34816 -109.50602 39028 ft 558 kts 96°
2026-05-05 18:25 27.34791 -109.41880 39035 ft 557 kts 96°
2026-05-05 18:26 27.34761 -109.33168 39038 ft 557 kts 96°
2026-05-05 18:26 27.34726 -109.24451 39048 ft 556 kts 96°
2026-05-05 18:27 27.34685 -109.15743 39053 ft 555 kts 96°
2026-05-05 18:27 27.34638 -109.07065 39069 ft 555 kts 96°
2026-05-05 18:28 27.34559 -108.94096 39073 ft 555 kts 96°
2026-05-05 18:28 27.34500 -108.85419 39090 ft 554 kts 96°
2026-05-05 18:29 27.34435 -108.76738 39115 ft 553 kts 96°
2026-05-05 18:29 27.34365 -108.68077 39119 ft 554 kts 96°
2026-05-05 18:30 27.34289 -108.59416 39129 ft 554 kts 96°
2026-05-05 18:30 27.34209 -108.50819 39146 ft 551 kts 96°
2026-05-05 18:31 27.34122 -108.42200 39153 ft 552 kts 96°
2026-05-05 18:31 27.34046 -108.35018 39169 ft 553 kts 96°
2026-05-05 18:32 27.33950 -108.26352 39185 ft 554 kts 96°
2026-05-05 18:32 27.33848 -108.17686 39193 ft 555 kts 96°
2026-05-05 18:33 27.33743 -108.09001 39202 ft 554 kts 96°
2026-05-05 18:33 27.33631 -108.00343 39220 ft 553 kts 96°
2026-05-05 18:34 27.33514 -107.91737 39227 ft 553 kts 96°
2026-05-05 18:34 27.33391 -107.83087 39228 ft 553 kts 96°
2026-05-05 18:35 27.33263 -107.74421 39236 ft 553 kts 96°
2026-05-05 18:35 27.33133 -107.65759 39246 ft 552 kts 95°
2026-05-05 18:36 27.33776 -107.57090 39251 ft 560 kts 83°
2026-05-05 18:36 27.35759 -107.48659 39248 ft 564 kts 72°
2026-05-05 18:37 27.38517 -107.40383 39254 ft 565 kts 70°
2026-05-05 18:37 27.41325 -107.32114 39248 ft 565 kts 71°
2026-05-05 18:38 27.44074 -107.23825 39242 ft 565 kts 71°
2026-05-05 18:38 27.46776 -107.15524 39238 ft 565 kts 71°
2026-05-05 18:39 27.49470 -107.07207 39239 ft 565 kts 71°
2026-05-05 18:39 27.52143 -106.98947 39229 ft 565 kts 71°
2026-05-05 18:40 27.54833 -106.90628 39222 ft 565 kts 71°
2026-05-05 18:40 27.57520 -106.82304 39222 ft 566 kts 71°
2026-05-05 18:41 27.60215 -106.73939 39199 ft 567 kts 71°
2026-05-05 18:41 27.62884 -106.65631 39203 ft 567 kts 71°
2026-05-05 18:42 27.65568 -106.57253 39192 ft 568 kts 71°
2026-05-05 18:42 27.68251 -106.48858 39174 ft 569 kts 71°
2026-05-05 18:43 27.70938 -106.40440 39154 ft 570 kts 71°
2026-05-05 18:43 27.73621 -106.32007 39151 ft 571 kts 71°
2026-05-05 18:44 27.76310 -106.23534 39138 ft 572 kts 71°
2026-05-05 18:44 27.78991 -106.15067 39131 ft 573 kts 71°
2026-05-05 18:45 27.81670 -106.06582 39126 ft 573 kts 71°
2026-05-05 18:45 27.84330 -105.98144 39114 ft 574 kts 71°
2026-05-05 18:46 27.87006 -105.89634 39102 ft 574 kts 71°
2026-05-05 18:46 27.89675 -105.81125 39102 ft 574 kts 71°
2026-05-05 18:47 27.92338 -105.72608 39088 ft 574 kts 71°
2026-05-05 18:47 27.94991 -105.64106 39094 ft 573 kts 71°
2026-05-05 18:48 27.97633 -105.55621 39082 ft 572 kts 71°
2026-05-05 18:48 28.00267 -105.47137 39082 ft 571 kts 71°
2026-05-05 18:49 28.02894 -105.38658 39074 ft 571 kts 71°
2026-05-05 18:49 28.05506 -105.30218 39083 ft 572 kts 71°
2026-05-05 18:50 28.08132 -105.21703 39082 ft 573 kts 71°
2026-05-05 18:50 28.10748 -105.13183 39068 ft 573 kts 71°
2026-05-05 18:51 28.13363 -105.04650 39080 ft 573 kts 71°
2026-05-05 18:51 28.15976 -104.96105 39061 ft 573 kts 71°
2026-05-05 18:52 28.18563 -104.87627 39066 ft 571 kts 71°
2026-05-05 18:52 28.21155 -104.79113 39062 ft 571 kts 71°
2026-05-05 18:53 28.23738 -104.70604 39056 ft 569 kts 71°
2026-05-05 18:53 28.26312 -104.62107 39054 ft 569 kts 71°
2026-05-05 18:54 28.28864 -104.53664 39007 ft 568 kts 71°
2026-05-05 18:54 28.31418 -104.45186 39004 ft 567 kts 71°
2026-05-05 18:55 28.33961 -104.36723 39002 ft 566 kts 71°
2026-05-05 18:55 28.36505 -104.28241 38960 ft 566 kts 71°
2026-05-05 18:56 28.39033 -104.19787 38951 ft 565 kts 71°
2026-05-05 18:56 28.41555 -104.11328 38941 ft 565 kts 71°
2026-05-05 18:57 28.44068 -104.02882 38938 ft 564 kts 71°
2026-05-05 18:57 28.46556 -103.94501 38938 ft 563 kts 71°
2026-05-05 18:58 28.49050 -103.86073 38932 ft 563 kts 71°
2026-05-05 18:58 28.51544 -103.77626 38917 ft 563 kts 71°
2026-05-05 18:59 28.54031 -103.69183 38933 ft 563 kts 71°
2026-05-05 18:59 28.56520 -103.60713 38909 ft 564 kts 71°
2026-05-05 19:00 28.59002 -103.52242 38899 ft 564 kts 71°
2026-05-05 19:00 28.61466 -103.43807 38906 ft 565 kts 71°
2026-05-05 19:01 28.63940 -103.35315 38896 ft 565 kts 71°
2026-05-05 19:01 28.66414 -103.26806 38890 ft 566 kts 71°
2026-05-05 19:02 28.68882 -103.18294 38886 ft 566 kts 71°
2026-05-05 19:02 28.71345 -103.09777 38894 ft 566 kts 71°
2026-05-05 19:03 28.73803 -103.01258 38902 ft 566 kts 71°
2026-05-05 19:03 28.76244 -102.92774 38899 ft 566 kts 71°
2026-05-05 19:04 28.78697 -102.84218 38901 ft 566 kts 71°
2026-05-05 19:04 28.81139 -102.75683 38899 ft 566 kts 71°
2026-05-05 19:05 28.83577 -102.67146 38901 ft 566 kts 71°
2026-05-05 19:05 28.86010 -102.58600 38900 ft 566 kts 71°
2026-05-05 19:06 28.88437 -102.50052 38893 ft 567 kts 71°
2026-05-05 19:06 28.90843 -102.41551 38889 ft 566 kts 71°
2026-05-05 19:07 28.93260 -102.32989 38885 ft 566 kts 71°
2026-05-05 19:07 28.95668 -102.24433 38892 ft 565 kts 71°
2026-05-05 19:08 28.98071 -102.15876 38886 ft 566 kts 71°
2026-05-05 19:08 29.00473 -102.07304 38871 ft 566 kts 71°
2026-05-05 19:09 29.02846 -101.98803 38870 ft 566 kts 71°
2026-05-05 19:09 29.05236 -101.90221 38860 ft 566 kts 71°
2026-05-05 19:10 29.07617 -101.81650 38862 ft 566 kts 71°
2026-05-05 19:10 29.10003 -101.73039 38860 ft 567 kts 71°
2026-05-05 19:11 29.12377 -101.64442 38853 ft 567 kts 71°
2026-05-05 19:11 29.14750 -101.55825 38853 ft 568 kts 71°
2026-05-05 19:12 29.17119 -101.47202 38847 ft 568 kts 71°
2026-05-05 19:12 29.19470 -101.38615 38841 ft 568 kts 71°
2026-05-05 19:13 29.21832 -101.29967 38841 ft 568 kts 71°
2026-05-05 19:13 29.24189 -101.21319 38833 ft 568 kts 71°
2026-05-05 19:14 29.26535 -101.12677 38831 ft 568 kts 71°
2026-05-05 19:14 29.28877 -101.04032 38834 ft 568 kts 71°
2026-05-05 19:15 29.31200 -100.95432 38833 ft 568 kts 71°
2026-05-05 19:15 29.33531 -100.86773 38835 ft 569 kts 71°
2026-05-05 19:16 29.35825 -100.78073 38819 ft 570 kts 74°
2026-05-05 19:16 29.37304 -100.69139 38807 ft 570 kts 82°
2026-05-05 19:17 29.38395 -100.60188 38795 ft 571 kts 82°
2026-05-05 19:17 29.39497 -100.51168 38806 ft 571 kts 82°
2026-05-05 19:18 29.40644 -100.42154 38823 ft 571 kts 82°
2026-05-05 19:18 29.41810 -100.33123 38850 ft 572 kts 81°
2026-05-05 19:19 29.41901 -100.32421 38851 ft 572 kts 81°
2026-05-05 19:19 29.42480 -100.27918 38852 ft 572 kts 81°
2026-05-05 19:20 29.43634 -100.18882 38864 ft 573 kts 82°
2026-05-05 19:20 29.44588 -100.11352 38859 ft 574 kts 82°
2026-05-05 19:21 29.45916 -100.00796 38860 ft 575 kts 82°
2026-05-05 19:21 29.47053 -99.91703 38873 ft 575 kts 82°
2026-05-05 19:22 29.47993 -99.84150 38868 ft 575 kts 82°
2026-05-05 19:22 29.49119 -99.75062 38859 ft 575 kts 82°
2026-05-05 19:23 29.50239 -99.65978 38875 ft 574 kts 82°
2026-05-05 19:23 29.51349 -99.56908 38869 ft 574 kts 82°
2026-05-05 19:24 29.52452 -99.47846 38871 ft 573 kts 82°
2026-05-05 19:24 29.53547 -99.38797 38875 ft 572 kts 82°
2026-05-05 19:25 29.54636 -99.29752 38869 ft 571 kts 82°
2026-05-05 19:25 29.55718 -99.20719 38870 ft 570 kts 82°
2026-05-05 19:26 29.56785 -99.11744 38648 ft 571 kts 82°
2026-05-05 19:26 29.57319 -99.07232 38402 ft 567 kts 82°
2026-05-05 19:26 29.57846 -99.02760 38150 ft 562 kts 82°
2026-05-05 19:27 29.58368 -98.98322 37892 ft 557 kts 82°
2026-05-05 19:27 29.58883 -98.93933 37641 ft 554 kts 82°
2026-05-05 19:27 29.59395 -98.89559 37395 ft 551 kts 82°
2026-05-05 19:27 29.59904 -98.85204 37148 ft 548 kts 82°
2026-05-05 19:28 29.60407 -98.80873 36937 ft 545 kts 82°
2026-05-05 19:28 29.60908 -98.76561 36810 ft 541 kts 82°
2026-05-05 19:28 29.61402 -98.72295 36688 ft 539 kts 82°
2026-05-05 19:28 29.61898 -98.67996 36579 ft 543 kts 82°
2026-05-05 19:29 29.62389 -98.63724 36470 ft 547 kts 82°
2026-05-05 19:29 29.62892 -98.59333 36342 ft 547 kts 82°
2026-05-05 19:29 29.63387 -98.55002 36210 ft 547 kts 82°
2026-05-05 19:29 29.63883 -98.50659 36080 ft 548 kts 83°
2026-05-05 19:30 29.64369 -98.46308 35954 ft 549 kts 84°
2026-05-05 19:30 29.64563 -98.41993 35825 ft 548 kts 91°
2026-05-05 19:30 29.64226 -98.33256 35672 ft 546 kts 96°
2026-05-05 19:31 29.63697 -98.24548 35523 ft 545 kts 96°
2026-05-05 19:31 29.63290 -98.15851 35372 ft 545 kts 95°
2026-05-05 19:32 29.62969 -98.07156 35221 ft 544 kts 94°
2026-05-05 19:32 29.62658 -97.98465 35068 ft 543 kts 94°
2026-05-05 19:33 29.62331 -97.89783 34920 ft 542 kts 95°
2026-05-05 19:33 29.61991 -97.81129 34773 ft 541 kts 95°
2026-05-05 19:34 29.61641 -97.72430 34763 ft 551 kts 95°
2026-05-05 19:34 29.61463 -97.68046 34410 ft 548 kts 95°
2026-05-05 19:35 29.61112 -97.59391 33507 ft 540 kts 95°
2026-05-05 19:35 29.60937 -97.55104 33074 ft 535 kts 95°
2026-05-05 19:35 29.60760 -97.50847 32641 ft 531 kts 95°
2026-05-05 19:35 29.60582 -97.46631 32210 ft 527 kts 94°
2026-05-05 19:36 29.60404 -97.42439 31774 ft 522 kts 94°
2026-05-05 19:36 29.60227 -97.38292 31342 ft 518 kts 94°
2026-05-05 19:36 29.60049 -97.34169 30914 ft 514 kts 94°
2026-05-05 19:36 29.59873 -97.30084 30485 ft 510 kts 94°
2026-05-05 19:37 29.59695 -97.26016 30056 ft 507 kts 93°
2026-05-05 19:37 29.59519 -97.21997 29629 ft 502 kts 93°
2026-05-05 19:37 29.59343 -97.17999 29170 ft 498 kts 93°
2026-05-05 19:37 29.59167 -97.14038 28694 ft 494 kts 93°
2026-05-05 19:38 29.58992 -97.10111 28222 ft 491 kts 93°
2026-05-05 19:38 29.58816 -97.06209 27755 ft 487 kts 93°
2026-05-05 19:38 29.58640 -97.02337 27291 ft 484 kts 93°
2026-05-05 19:38 29.58465 -96.98489 26828 ft 480 kts 93°
2026-05-05 19:39 29.58289 -96.94667 26368 ft 477 kts 93°
2026-05-05 19:39 29.58113 -96.90871 25914 ft 474 kts 93°
2026-05-05 19:39 29.57937 -96.87106 25463 ft 471 kts 93°
2026-05-05 19:39 29.57763 -96.83401 24986 ft 457 kts 93°
2026-05-05 19:40 29.57595 -96.79819 24586 ft 454 kts 93°
2026-05-05 19:40 29.57424 -96.76211 24156 ft 452 kts 93°
2026-05-05 19:40 29.57253 -96.72613 23727 ft 450 kts 93°
2026-05-05 19:40 29.57082 -96.69044 23297 ft 448 kts 93°
2026-05-05 19:41 29.56909 -96.65471 22866 ft 446 kts 93°
2026-05-05 19:41 29.56738 -96.61925 22442 ft 443 kts 93°
2026-05-05 19:41 29.56565 -96.58395 22018 ft 441 kts 93°
2026-05-05 19:41 29.56393 -96.54883 21597 ft 439 kts 93°
2026-05-05 19:42 29.56222 -96.51393 21176 ft 436 kts 93°
2026-05-05 19:42 29.56050 -96.47922 20755 ft 434 kts 93°
2026-05-05 19:42 29.55878 -96.44472 20333 ft 432 kts 93°
2026-05-05 19:42 29.55707 -96.41043 19910 ft 429 kts 94°
2026-05-05 19:43 29.55535 -96.37619 19487 ft 427 kts 94°
2026-05-05 19:43 29.55364 -96.34230 19209 ft 421 kts 94°
2026-05-05 19:43 29.55196 -96.30911 18975 ft 413 kts 94°
2026-05-05 19:43 29.55030 -96.27660 18517 ft 413 kts 94°
2026-05-05 19:44 29.54861 -96.24360 18003 ft 414 kts 94°
2026-05-05 19:44 29.54788 -96.21080 17461 ft 409 kts 84°
2026-05-05 19:44 29.55472 -96.17922 16922 ft 407 kts 63°
2026-05-05 19:44 29.56808 -96.15128 16520 ft 397 kts 57°
2026-05-05 19:45 29.58182 -96.12391 16124 ft 394 kts 58°
2026-05-05 19:45 29.59512 -96.09653 15734 ft 391 kts 58°
2026-05-05 19:45 29.60810 -96.06928 15358 ft 387 kts 59°
2026-05-05 19:45 29.62092 -96.04221 14963 ft 383 kts 59°
2026-05-05 19:46 29.63358 -96.01546 14581 ft 380 kts 59°
2026-05-05 19:46 29.64620 -95.98878 14201 ft 376 kts 59°
2026-05-05 19:46 29.65861 -95.96256 13822 ft 372 kts 59°
2026-05-05 19:46 29.67096 -95.93646 13425 ft 369 kts 59°
2026-05-05 19:47 29.68315 -95.91065 13024 ft 366 kts 59°
2026-05-05 19:47 29.69524 -95.88507 12654 ft 363 kts 59°
2026-05-05 19:47 29.70715 -95.85983 12234 ft 348 kts 59°
2026-05-05 19:47 29.71832 -95.83614 11649 ft 328 kts 59°
2026-05-05 19:48 29.72883 -95.81385 10921 ft 317 kts 60°
2026-05-05 19:48 29.73957 -95.79112 10341 ft 324 kts 60°
2026-05-05 19:48 29.75031 -95.76836 9998 ft 322 kts 62°
2026-05-05 19:48 29.76091 -95.74584 9682 ft 319 kts 62°
2026-05-05 19:49 29.77148 -95.72339 9328 ft 318 kts 62°
2026-05-05 19:49 29.77847 -95.70854 9075 ft 318 kts 63°
2026-05-05 19:49 29.79254 -95.67859 8568 ft 318 kts 63°
2026-05-05 19:49 29.80147 -95.65959 8316 ft 316 kts 63°
2026-05-05 19:50 29.81188 -95.63741 8018 ft 313 kts 63°
2026-05-05 19:50 29.82222 -95.61538 7680 ft 312 kts 63°
2026-05-05 19:50 29.83237 -95.59377 7373 ft 311 kts 64°
2026-05-05 19:50 29.84265 -95.57185 7079 ft 308 kts 64°
2026-05-05 19:51 29.85279 -95.55019 6809 ft 305 kts 64°
2026-05-05 19:51 29.86283 -95.52861 6469 ft 305 kts 64°
2026-05-05 19:51 29.87267 -95.50750 6251 ft 288 kts 64°
2026-05-05 19:51 29.88197 -95.48753 5997 ft 280 kts 65°
2026-05-05 19:52 29.89049 -95.46794 5978 ft 266 kts 75°
2026-05-05 19:52 29.89265 -95.44696 6009 ft 268 kts 96°
2026-05-05 19:52 29.89238 -95.42516 5999 ft 274 kts 95°
2026-05-05 19:52 29.89225 -95.40334 5987 ft 271 kts 95°
2026-05-05 19:53 29.89218 -95.38191 5974 ft 260 kts 95°
2026-05-05 19:53 29.89212 -95.36179 5967 ft 249 kts 95°
2026-05-05 19:53 29.89203 -95.34184 5995 ft 250 kts 95°
2026-05-05 19:53 29.89196 -95.32186 5988 ft 246 kts 95°
2026-05-05 19:54 29.89190 -95.30258 5918 ft 236 kts 96°
2026-05-05 19:54 29.89183 -95.28378 5638 ft 234 kts 96°
2026-05-05 19:54 29.89175 -95.26510 5371 ft 232 kts 96°
2026-05-05 19:54 29.89168 -95.24661 5102 ft 226 kts 96°
2026-05-05 19:55 29.89165 -95.22904 4900 ft 216 kts 96°
2026-05-05 19:55 29.89158 -95.21171 4629 ft 216 kts 96°
2026-05-05 19:55 29.89151 -95.19442 4350 ft 215 kts 96°
2026-05-05 19:55 29.89096 -95.17735 4106 ft 211 kts 99°
2026-05-05 19:56 29.89098 -95.16077 4005 ft 205 kts 92°
2026-05-05 19:56 29.89219 -95.14441 4003 ft 205 kts 91°
2026-05-05 19:56 29.89336 -95.12816 4016 ft 206 kts 91°
2026-05-05 19:56 29.89448 -95.11196 3987 ft 198 kts 91°
2026-05-05 19:57 29.89559 -95.09618 3991 ft 196 kts 91°
2026-05-05 19:57 29.89631 -95.08543 4004 ft 201 kts 91°
2026-05-05 19:57 29.89763 -95.06413 3988 ft 199 kts 92°
2026-05-05 19:57 29.89904 -95.04850 3979 ft 195 kts 79°
2026-05-05 19:58 29.90647 -95.03534 4004 ft 204 kts 38°
2026-05-05 19:58 29.91976 -95.02939 4027 ft 208 kts
2026-05-05 19:58 29.93446 -95.02774 3995 ft 214 kts
2026-05-05 19:58 29.94914 -95.02651 3985 ft 207 kts
2026-05-05 19:59 29.96335 -95.02537 3995 ft 204 kts
2026-05-05 19:59 29.97721 -95.02682 3967 ft 199 kts 331°
2026-05-05 19:59 29.98709 -95.03685 3997 ft 187 kts 289°
2026-05-05 19:59 29.98981 -95.05097 4011 ft 178 kts 269°
2026-05-05 20:00 29.99145 -95.06538 4005 ft 184 kts 271°
2026-05-05 20:00 29.99280 -95.08000 3995 ft 180 kts 268°
2026-05-05 20:00 29.99335 -95.09361 3959 ft 166 kts 264°
2026-05-05 20:00 29.99351 -95.10666 3747 ft 160 kts 263°
2026-05-05 20:01 29.99355 -95.11944 3545 ft 159 kts 263°
2026-05-05 20:01 29.99356 -95.13227 3353 ft 160 kts 263°
2026-05-05 20:01 29.99355 -95.14500 3157 ft 157 kts 263°
2026-05-05 20:01 29.99355 -95.15753 2924 ft 155 kts 263°
2026-05-05 20:02 29.99353 -95.16987 2721 ft 153 kts 263°
2026-05-05 20:02 29.99351 -95.18217 2512 ft 154 kts 264°
2026-05-05 20:02 29.99352 -95.19448 2314 ft 150 kts 264°
2026-05-05 20:02 29.99353 -95.20589 2121 ft 136 kts 264°
2026-05-05 20:03 29.99351 -95.21668 1945 ft 134 kts 264°
2026-05-05 20:03 29.99351 -95.22749 1776 ft 136 kts 265°
2026-05-05 20:03 29.99348 -95.23837 1578 ft 135 kts 265°
2026-05-05 20:03 29.99347 -95.24914 1414 ft 135 kts 266°
2026-05-05 20:04 29.99347 -95.26009 1248 ft 136 kts 266°
2026-05-05 20:04 29.99347 -95.27101 1047 ft 135 kts 266°
2026-05-05 20:04 29.99348 -95.28168 869 ft 135 kts 267°
2026-05-05 20:04 29.99346 -95.29251 690 ft 135 kts 266°
2026-05-05 20:05 29.99346 -95.30334 509 ft 135 kts 268°
2026-05-05 20:05 29.99346 -95.31415 325 ft 134 kts 269°
2026-05-05 20:05 29.99345 -95.32490 164 ft 135 kts 269°
2026-05-05 20:05 29.99342 -95.33528 113 ft 116 kts 270°
2026-05-05 20:06 29.99341 -95.34207 109 ft 54 kts 269°
2026-05-05 20:06 29.99339 -95.34466 110 ft 43 kts 269°
2026-05-05 20:06 29.99323 -95.34654 109 ft 16 kts 255°
2026-05-05 20:06 29.99283 -95.34772 111 ft 16 kts 242°
2026-05-05 20:07 29.99229 -95.34883 110 ft 16 kts 240°
2026-05-05 20:07 29.99167 -95.34988 108 ft 16 kts 220°
2026-05-05 20:07 29.99104 -95.34972 108 ft 16 kts 123°
2026-05-05 20:07 29.99086 -95.34847 109 ft 16 kts 90°
2026-05-05 20:08 29.99086 -95.34721 109 ft 16 kts 90°
2026-05-05 20:08 29.99086 -95.34593 111 ft 16 kts 90°
2026-05-05 20:08 29.99085 -95.34466 112 ft 16 kts 90°
2026-05-05 20:08 29.99085 -95.34338 109 ft 16 kts 90°
2026-05-05 20:09 29.99085 -95.34211 110 ft 16 kts 90°
2026-05-05 20:09 29.99087 -95.34083 110 ft 16 kts 88°
2026-05-05 20:09 29.99060 -95.33979 111 ft 13 kts 171°
2026-05-05 20:09 29.98997 -95.34050 112 ft 13 kts 257°
2026-05-05 20:10 29.98993 -95.34118 112 ft 0 kts 269°